Jacksonville, FL

1:06 AM EDT on August 31, 2016 (GMT -0400)
Cecil

Weather History for KVQQ - August, 2014

Change the Weather History Date:

Monday, August 11, 2014

  Actual Average (KJAX) Record (KJAX)
Temperature  
Mean Temperature 80 °F 82 °F  
Max Temperature 89 °F 91 °F 98 °F (1968)
Min Temperature 71 °F 73 °F 68 °F (1989)
Degree Days  
Heating Degree Days 0 0  
Month to date heating degree days 0  
Since 1 June heating degree days 0  
Since 1 July heating degree days 0  
Cooling Degree Days 15 17  
Month to date cooling degree days 188  
Year to date cooling degree days 1657  
Since 1 June cooling degree days 1173  
Growing Degree Days 30 (Base 50)    
Moisture  
Dew Point 74 °F    
Average Humidity 91    
Maximum Humidity 100    
Minimum Humidity 62    
Precipitation  
Precipitation 0.00 in 0.21 in 1.46 in (1996)
Month to date precipitation 2.21  
Year to date precipitation 30.77  
Snow  
Snow 0.00 in 0.00 in 0.00 in (2002)
Month to date snowfall 0.0  
Since 1 June snowfall 0.0  
Since 1 July snowfall 0.0  
Snow Depth -    
Sea Level Pressure  
Sea Level Pressure 29.99 in    
Wind  
Wind Speed 3 mph (SW)    
Max Wind Speed 14 mph    
Max Gust Speed 23 mph    
Visibility 10 miles    
Events      
T = Trace of Precipitation, MM = Missing Value Source: NWS Daily Summary

Daily Weather History Graph

Daily Weather History Graph

Search for Another Location

Airport or City:

Trip Planner

Search our weather history database for the weather conditions in past years. The results will help you decide how hot, cold, wet, or windy it might be!

Date:

Astronomy

Aug. 11, 2014 Rise Set
Actual Time 6:52 AM EDT 8:12 PM EDT
Civil Twilight 6:26 AM EDT 8:38 PM EDT
Nautical Twilight 5:56 AM EDT 9:08 PM EDT
Astronomical Twilight 5:24 AM EDT 9:39 PM EDT
Moon 8:50 PM EDT (8/11) 7:47 AM EDT (8/11)
Length of Visible Light 14h 11m
Length of Day
13h 20m
Full, 99% of the Moon is Illuminated
Aug 11
Full
Aug 17
Last Quarter
Aug 25
New
Sep 2
First Quarter
Sep 8
Full

Hourly Weather History & Observations

Time (EDT) Temp. Heat Index Dew Point Humidity Pressure Visibility Wind Dir Wind Speed Gust Speed Precip Events Conditions
12:15 AM 77.0 °F - 73.4 °F 89% 30.02 in 10.0 mi SSW 4.6 mph - N/A   Partly Cloudy
12:35 AM 75.2 °F - 73.4 °F 94% 30.02 in 10.0 mi SW 3.5 mph - N/A   Clear
12:55 AM 75.2 °F - 73.4 °F 94% 30.02 in 10.0 mi Calm Calm - N/A   Partly Cloudy
1:15 AM 75.2 °F - 73.4 °F 94% 30.02 in 10.0 mi SW 3.5 mph - N/A   Mostly Cloudy
1:35 AM 75.2 °F - 73.4 °F 94% 30.02 in 10.0 mi Calm Calm - N/A   Partly Cloudy
1:55 AM 73.4 °F - 73.4 °F 100% 30.01 in 10.0 mi Calm Calm - N/A   Clear
2:15 AM 73.4 °F - 73.4 °F 100% 30.00 in 10.0 mi Calm Calm - N/A   Clear
2:35 AM 73.4 °F - 73.4 °F 100% 30.00 in 10.0 mi Calm Calm - N/A   Clear
2:55 AM 73.4 °F - 73.4 °F 100% 29.99 in 10.0 mi Calm Calm - N/A   Clear
3:15 AM 73.4 °F - 73.4 °F 100% 29.98 in 10.0 mi SSW 3.5 mph - N/A   Clear
3:35 AM 73.4 °F - 73.4 °F 100% 29.98 in 9.0 mi SSW 5.8 mph - N/A   Clear
3:55 AM 75.2 °F - 73.4 °F 94% 29.98 in 10.0 mi SW 4.6 mph - N/A   Clear
4:15 AM 75.2 °F - 73.4 °F 94% 29.98 in 10.0 mi SW 3.5 mph - N/A   Clear
4:35 AM 75.2 °F - 73.4 °F 94% 29.98 in 10.0 mi Calm Calm - N/A   Clear
4:55 AM 73.4 °F - 73.4 °F 100% 29.98 in 10.0 mi Calm Calm - N/A   Clear
5:15 AM 73.4 °F - 73.4 °F 100% 29.98 in 8.0 mi Calm Calm - N/A   Clear
5:35 AM 73.4 °F - 71.6 °F 94% 29.98 in 10.0 mi Calm Calm - N/A   Clear
5:55 AM 73.4 °F - 71.6 °F 94% 29.98 in 8.0 mi Calm Calm - N/A   Clear
6:15 AM 71.6 °F - 71.6 °F 100% 29.98 in 9.0 mi Calm Calm - N/A   Clear
6:35 AM 71.6 °F - 71.6 °F 100% 29.99 in 7.0 mi Calm Calm - N/A   Clear
7:50 AM 73.4 °F - 73.4 °F 100% 30.00 in 10.0 mi Calm Calm - N/A   Partly Cloudy
9:50 AM 80.6 °F 86.2 °F 75.2 °F 84% 30.02 in 10.0 mi Calm Calm - N/A   Partly Cloudy
10:50 AM 82.4 °F 89.5 °F 75.2 °F 79% 30.03 in 10.0 mi Calm Calm - N/A   Scattered Clouds
11:50 AM 84.2 °F 92.3 °F 75.2 °F 74% 30.02 in 10.0 mi West 6.9 mph - N/A   Mostly Cloudy
12:50 PM 87.8 °F 99.7 °F 77.0 °F 70% 30.01 in 10.0 mi West 5.8 mph - N/A   Mostly Cloudy
1:50 PM 89.6 °F 99.8 °F 75.2 °F 62% 29.99 in 10.0 mi WSW 13.8 mph 23.0 mph N/A   Mostly Cloudy
2:50 PM 82.4 °F 88.2 °F 73.4 °F 74% 29.98 in 10.0 mi WSW 10.4 mph - N/A   Clear
5:50 PM 82.4 °F 89.5 °F 75.2 °F 79% 29.95 in 10.0 mi SSW 8.1 mph - N/A   Scattered Clouds
7:50 PM 80.6 °F 86.2 °F 75.2 °F 84% 29.95 in 10.0 mi West 6.9 mph - N/A   Mostly Cloudy
8:15 PM 78.8 °F - 75.2 °F 89% 29.96 in 10.0 mi SW 5.8 mph - N/A   Mostly Cloudy
8:35 PM 78.8 °F - 75.2 °F 89% 29.96 in 10.0 mi SSW 5.8 mph - N/A   Mostly Cloudy
8:55 PM 77.0 °F - 73.4 °F 89% 29.96 in 10.0 mi SSW 6.9 mph - N/A   Scattered Clouds
9:15 PM 77.0 °F - 73.4 °F 89% 29.96 in 10.0 mi SW 3.5 mph - N/A   Scattered Clouds
9:35 PM 77.0 °F - 73.4 °F 89% 29.97 in 10.0 mi SW 4.6 mph - N/A   Partly Cloudy
9:55 PM 75.2 °F - 73.4 °F 94% 29.96 in 10.0 mi SW 5.8 mph - N/A   Clear
10:15 PM 75.2 °F - 73.4 °F 94% 29.97 in 10.0 mi SW 5.8 mph - N/A   Clear
10:35 PM 75.2 °F - 73.4 °F 94% 29.97 in 10.0 mi SSW 5.8 mph - N/A   Clear
10:55 PM 75.2 °F - 73.4 °F 94% 29.97 in 10.0 mi South 6.9 mph - N/A   Clear
11:15 PM 75.2 °F - 73.4 °F 94% 29.97 in 10.0 mi SSW 5.8 mph - N/A   Clear
11:35 PM 75.2 °F - 73.4 °F 94% 29.97 in 10.0 mi SSW 5.8 mph - N/A   Clear
11:55 PM 75.2 °F - 73.4 °F 94% 29.97 in 10.0 mi South 4.6 mph - N/A   Clear